Location: site
(53.0000°N, 23.0500°E)
Time: 01:03:37
(UTC+01:00)

SAOCOM 1-A - Visible Passes

Search period start: 19 November 2019 00:00
Search period end: 29 November 2019 00:00
Orbit: 621 x 623 km, 97.9° (Epoch: 18 November)

Date Brightness Start Highest point End Pass type
(mag) Time Alt. Az. Time Alt. Az. Time Alt. Az.
19 Nov ? 03:50:23 10° SE 03:54:18 34° ENE 03:57:50 12° N visible
19 Nov ? 05:26:31 10° SSW 05:30:29 34° W 05:34:28 10° NNW visible
19 Nov ? 17:10:14 25° ENE 17:11:22 28° E 17:15:08 10° SSE visible
19 Nov ? 18:47:27 40° WNW 18:47:39 40° WNW 18:51:42 10° SW visible
20 Nov ? 04:08:04 10° SE 04:12:14 48° ENE 04:15:48 14° N visible
20 Nov ? 05:45:07 10° SSW 05:48:39 24° W 05:52:12 10° NW visible
20 Nov ? 17:28:38 36° ENE 17:29:31 41° E 17:33:37 10° S visible
20 Nov ? 19:05:52 29° WNW 19:05:52 29° WNW 19:09:18 10° WSW visible
21 Nov ? 02:52:58 10° ENE 02:54:50 13° NE 02:56:34 10° NNE visible
21 Nov ? 04:25:54 10° SSE 04:30:13 70° ENE 04:33:46 15° N visible
21 Nov ? 06:04:01 10° SW 06:06:52 17° W 06:09:44 10° NW visible
21 Nov ? 17:47:01 54° ENE 17:47:37 60° ESE 17:51:55 10° S visible
21 Nov ? 19:24:14 20° WNW 19:24:14 20° WNW 19:26:44 10° WSW visible
22 Nov ? 03:09:50 10° E 03:12:37 17° NE 03:14:33 13° NNE visible
22 Nov ? 04:43:54 10° SSE 04:48:15 82° WSW 04:51:45 16° NNW visible
22 Nov ? 06:23:33 10° WSW 06:25:09 12° W 06:26:44 10° WNW visible
22 Nov ? 16:28:09 12° ENE 16:28:49 13° E 16:30:44 10° ESE visible
22 Nov ? 18:05:23 77° NNE 18:05:41 87° ESE 18:10:01 10° SSW visible
22 Nov ? 19:42:36 14° WNW 19:42:36 14° WNW 19:43:55 10° W visible
23 Nov ? 03:27:04 10° ESE 03:30:27 23° ENE 03:32:33 16° NNE visible
23 Nov ? 05:02:02 10° S 05:06:19 56° W 05:09:45 15° NNW visible
23 Nov ? 16:46:30 18° E 16:47:05 18° E 16:50:05 10° SE visible
23 Nov ? 18:23:44 65° WNW 18:23:44 65° WNW 18:28:00 10° SSW visible
24 Nov ? 03:44:32 10° SE 03:48:20 31° ENE 03:50:34 19° NNE visible
24 Nov ? 05:20:22 10° SSW 05:24:26 38° W 05:27:46 14° NNW visible
24 Nov ? 17:04:51 25° E 17:05:18 25° E 17:08:56 10° SSE visible
24 Nov ? 18:42:05 44° W 18:42:05 44° W 18:45:49 10° SW visible
25 Nov ? 04:02:10 10° SE 04:06:15 43° ENE 04:08:35 23° N visible
25 Nov ? 05:38:54 10° SSW 05:42:35 27° W 05:45:47 13° NW visible
25 Nov ? 17:23:12 36° E 17:23:28 36° E 17:27:30 10° SSE visible
25 Nov ? 19:00:25 30° W 19:00:25 30° W 19:03:28 10° SW visible
26 Nov ? 02:47:32 10° ENE 02:48:54 11° NE 02:49:24 11° NE visible
26 Nov ? 04:19:57 10° SSE 04:24:14 61° ENE 04:26:37 25° N visible
26 Nov ? 05:57:41 10° SW 06:00:48 19° W 06:03:49 10° NW visible
26 Nov ? 17:41:30 52° E 17:41:36 53° E 17:45:51 10° S visible
26 Nov ? 19:18:44 21° W 19:18:44 21° W 19:20:57 10° WSW visible
27 Nov ? 03:04:10 10° E 03:06:42 15° NE 03:07:26 15° NE visible
27 Nov ? 04:37:53 10° SSE 04:42:14 88° ENE 04:44:39 26° NNW visible
27 Nov ? 06:16:55 10° WSW 06:19:03 13° W 06:21:11 10° WNW visible
27 Nov ? 16:22:36 11° E 16:22:44 11° E 16:23:58 10° E visible
27 Nov ? 17:59:49 76° SE 17:59:49 76° SE 18:04:01 10° S visible
27 Nov ? 19:37:03 14° W 19:37:03 14° W 19:38:13 10° W visible
28 Nov ? 03:21:18 10° ESE 03:24:31 20° ENE 03:25:29 19° NE visible
28 Nov ? 04:56:00 10° S 05:00:18 64° WSW 05:02:42 25° NNW visible
28 Nov ? 16:40:54 16° E 16:41:01 16° E 16:43:43 10° SE visible
28 Nov ? 18:18:08 67° WSW 18:18:08 67° WSW 18:22:02 10° SSW visible
